Temp
14 14 13 13 13 14 14 15 14 14 15 15 15 14 14 14 14 13 13 12 13 14 16 17 18 18 17 17 17 17 18 18
13 13 13 13 13 12 13 13 13 14 13 14 13 14 14 14 13 13 13 13 14 14 14 15 16 17 17 17 17 17 16 16
11 12 12 13 13 12 13 13 13 13 13 13 13 12 12 11 11 12 12 11 12 12 12 14 14 15 16 16 17 15 16 15
11 11 11 11 11 11 12 12 12 12 11 11 11 11 11 11 11 11 11 11 11 11 11 12 11 10 11 13 12 12 13 14
9 10 10 11 11 11 11 11 11 11 11 11 11 11 11 11 10 10 9 9 7 7 7 6 6 6 7 8 8 9 11 12
9 10 10 11 11 12 11 11 11 11 10 10 10 10 9 8 6 5 5 4 4 4 4 4 5 5 5 6 7 7 9 9
9 9 10 10 10 10 10 9 9 9 9 9 8 7 6 5 5 3 3 2 3 3 3 4 4 4 5 5 6 6 7 8
9 9 9 9 9 9 8 8 7 7 6 6 7 6 5 4 3 3 2 2 1 2 2 3 3 3 4 4 5 6 6 7
8 8 8 8 8 8 7 6 6 6 5 5 5 4 3 2 2 1 1 1 1 1 2 2 3 4 4 4 4 5 6 6
7 8 8 8 7 7 6 6 6 5 4 3 4 3 2 1 1 0 -0 0 1 1 1 2 3 3 4 4 5 6 6 6
7 7 7 6 6 5 5 4 3 2 1 1 2 2 2 0 -0 -1 -1 -0 -0 -0 0 1 1 2 3 4 5 5 6 6
6 6 6 5 5 5 4 3 2 1 1 1 1 0 1 -1 -1 -2 -2 -1 -1 -1 -1 0 1 1 2 4 5 6 6 7
6 6 6 6 4 4 3 3 1 0 -0 0 0 -1 -1 -2 -2 -2 -2 -2 -2 -2 -1 -1 1 0 1 3 7 8 7 6
5 5 5 5 5 5 4 2 1 0 -1 -1 -2 -2 -1 -2 -3 -3 -3 -3 -2 -2 -2 -1 -1 0 1 2 5 8 8 6
4 4 4 4 4 4 2 1 0 -0 -1 -1 -2 -2 -2 -3 -4 -4 -3 -3 -3 -3 -3 -2 -2 -0 0 1 3 4 3 7
3 2 3 3 3 2 2 1 1 -1 -2 -2 -2 -3 -3 -4 -4 -4 -4 -4 -4 -4 -3 -3 -3 -1 -0 -1 -1 -0 3 3
2 3 3 2 1 1 0 -1 -1 -2 -2 -2 -2 -3 -3 -4 -4 -4 -4 -4 -4 -4 -4 -4 -3 -3 -2 -2 -1 -0 1 -0
2 2 1 0 1 1 0 -1 -1 -1 -2 -2 -3 -4 -4 -5 -5 -5 -5 -5 -5 -5 -5 -4 -4 -4 -4 -3 -3 -2 -2 -1
1 0 -0 -0 -0 0 -1 -1 -2 -3 -3 -3 -3 -4 -4 -5 -5 -5 -5 -6 -5 -5 -5 -5 -5 -5 -5 -4 -4 -4 -4 -3
1 0 -1 -1 -1 -2 -2 -1 -2 -3 -4 -4 -4 -4 -5 -5 -5 -6 -6 -6 -6 -5 -5 -5 -5 -5 -5 -5 -5 -4 -4 -4
Height
824 824 824 824 823 822 821 819 820 820 819 818 819 819 817 814 812 811 809 807 806 804 802 801 800 799 798 798 798 797 796 797
825 826 825 825 824 823 822 822 822 821 820 819 819 817 816 813 812 809 807 804 804 801 799 797 795 794 793 794 794 794 792 792
826 826 826 825 825 824 824 823 823 822 821 820 819 818 816 814 811 808 806 803 802 800 797 794 792 790 789 789 789 789 788 787
828 827 826 826 825 825 824 823 822 822 821 819 818 816 814 812 809 807 804 801 799 797 794 792 790 789 787 784 784 783 783 782
829 828 827 826 825 824 824 824 823 822 821 819 818 816 813 811 807 804 802 799 797 794 792 790 788 787 785 783 781 780 779 778
828 828 827 826 825 824 825 825 825 824 823 821 819 816 813 811 809 806 803 801 798 796 793 790 788 786 783 781 779 776 775 772
827 827 826 826 826 827 827 827 827 827 825 824 821 819 816 813 810 809 806 803 800 797 794 790 787 785 782 779 776 773 770 768
827 827 828 828 828 828 829 829 830 829 827 826 823 821 819 816 814 810 807 803 801 798 795 790 786 783 780 777 773 769 766 763
829 829 829 830 830 830 830 831 831 830 830 828 826 824 822 819 816 812 808 805 801 799 795 790 786 782 778 775 769 765 762 759
831 832 832 832 831 831 832 832 832 831 830 829 827 826 823 820 818 814 809 807 803 800 796 790 786 781 777 772 766 761 757 754
832 833 835 835 834 834 833 834 834 833 832 830 828 826 824 821 819 815 811 808 805 801 797 792 786 781 776 769 762 757 753 751
833 834 835 834 834 834 834 834 833 833 832 830 828 826 824 821 820 817 813 810 805 802 796 792 787 782 775 766 758 753 751 749
832 833 834 834 833 834 835 836 836 835 833 832 829 827 824 822 819 817 814 810 806 802 797 791 786 781 774 765 754 749 748 748
832 834 834 835 833 833 833 834 834 833 832 833 832 829 823 821 819 817 815 812 807 802 798 793 787 784 777 769 758 749 748 746
831 832 833 833 832 832 832 832 833 833 832 833 830 827 824 821 819 817 816 812 809 804 800 796 792 786 782 777 770 761 758 745
829 831 833 832 831 831 830 831 832 831 832 833 830 825 823 822 820 817 816 813 810 805 803 800 795 789 783 780 779 777 765 751
827 829 831 832 832 830 830 832 831 830 833 829 828 826 824 822 823 820 817 812 809 806 802 800 797 794 787 782 778 774 770 770
824 826 828 830 830 829 830 830 831 831 830 830 829 827 827 826 823 820 816 813 809 805 803 802 799 795 790 786 784 780 776 774
824 827 827 828 829 829 830 830 831 830 831 831 830 828 828 826 824 820 816 814 810 806 804 804 801 797 792 788 785 782 780 774
824 825 826 828 828 830 828 829 831 832 833 831 830 829 828 827 824 821 817 814 811 808 805 804 802 798 794 790 786 783 780 776
Wind_Speed
12 12 12 13 14 13 14 13 13 13 13 13 12 12 11 12 12 13 13 13 12 12 14 16 17 15 14 14 16 16 17 16
13 12 12 12 13 14 14 14 13 13 13 13 13 13 13 12 12 13 13 14 15 15 16 16 17 18 19 18 18 17 15 14
12 12 11 11 12 12 12 13 13 13 14 14 14 15 15 15 14 15 14 14 15 15 16 17 18 19 19 20 21 15 17 15
12 11 11 11 12 12 13 14 15 16 16 16 16 16 16 15 16 18 18 19 19 19 18 17 16 16 16 17 15 17 18 17
11 11 12 12 13 13 14 15 16 17 18 19 18 18 19 19 19 20 21 22 19 20 18 16 17 16 15 15 15 16 16 17
11 11 11 12 12 14 14 14 15 16 17 18 19 20 21 21 20 19 19 19 19 17 16 17 17 16 16 17 16 16 16 17
11 10 11 12 11 12 13 14 15 16 16 18 19 18 17 17 17 16 17 18 18 18 17 17 16 17 16 17 18 18 18 19
11 10 10 9 10 10 11 11 12 13 15 17 17 17 18 17 16 17 17 18 17 17 18 18 17 17 17 17 18 19 19 20
10 9 8 8 9 9 10 11 11 13 14 16 17 18 18 16 15 16 17 16 16 16 17 16 18 18 18 19 19 19 19 21
9 8 7 7 7 8 8 9 9 11 12 13 16 17 17 16 15 17 19 16 16 16 18 19 18 19 20 21 22 20 19 19
11 8 6 6 6 7 8 8 9 10 11 12 15 16 17 16 14 16 17 15 15 16 18 17 19 19 21 22 21 19 14 12
10 8 6 5 4 4 5 7 8 9 10 12 14 15 17 16 13 16 15 15 15 17 17 18 16 17 24 20 20 12 7 7
9 7 6 4 3 2 2 3 6 9 10 12 13 14 16 14 14 15 16 16 16 17 17 20 17 18 15 21 10 9 3 26
8 6 5 4 4 3 2 1 2 6 9 10 10 13 15 15 15 16 17 16 17 17 18 19 18 18 12 11 7 5 11 15
9 7 5 4 5 3 3 2 1 4 8 8 9 13 15 15 14 15 15 15 16 17 17 17 16 16 15 8 4 4 13 8
11 8 4 4 5 5 6 6 4 5 6 7 9 12 15 15 14 14 13 12 15 15 15 15 15 15 10 15 9 11 4 6
12 9 5 4 5 6 6 6 6 6 6 9 10 11 13 15 13 12 12 12 13 14 16 16 14 12 13 17 13 14 8 6
14 12 9 6 5 7 8 8 8 6 8 9 9 9 10 13 13 12 12 13 14 14 15 15 14 13 14 13 13 8 15 10
13 12 10 7 6 7 8 9 8 8 7 7 7 8 9 11 14 14 13 13 12 13 14 14 15 15 17 16 14 13 14 13
15 13 11 9 8 8 9 9 9 7 6 6 7 7 9 10 12 13 14 14 13 12 12 13 14 14 16 18 15 16 15 14
Wind_Direction
94 88 87 81 73 68 64 58 51 46 36 30 25 17 14 13 11 7 5 349 341 325 305 292 288 286 286 287 286 278 269 265
94 91 86 80 76 65 59 55 48 43 37 32 22 14 10 7 360 355 351 342 336 327 316 309 292 285 280 279 281 285 274 267
92 90 84 80 77 69 60 54 47 38 33 27 20 16 11 10 7 2 359 350 342 332 325 315 306 298 286 277 274 277 278 275
90 91 90 84 76 66 58 49 41 35 29 25 22 18 16 12 9 5 1 356 350 344 338 331 326 316 307 298 287 281 280 274
92 89 80 69 61 53 45 36 32 27 22 19 16 13 11 9 5 1 357 353 351 348 345 342 334 327 320 312 301 293 282 277
92 80 68 58 49 44 38 31 27 24 20 16 14 11 8 7 4 359 357 352 348 347 343 337 332 326 319 312 305 297 287 279
91 81 69 61 53 48 41 35 30 26 21 17 14 11 8 5 3 359 356 352 348 345 340 335 330 324 320 314 307 300 292 285
94 83 70 62 59 53 47 39 33 28 24 20 16 14 8 2 359 357 354 352 346 342 338 334 330 326 321 315 309 301 292 286
107 99 88 76 68 59 51 42 33 29 24 19 17 14 8 4 359 356 353 349 348 343 340 337 331 328 321 316 311 301 293 289
118 106 93 84 77 68 58 42 32 29 25 20 16 12 9 5 1 357 352 351 350 346 341 336 334 331 325 318 308 302 296 292
130 113 98 92 90 78 63 47 40 33 26 22 14 12 9 8 1 356 355 352 352 347 341 339 333 332 325 317 309 305 305 308
129 120 113 113 95 67 49 40 38 30 26 21 15 13 12 10 3 359 358 356 352 349 345 340 334 335 325 318 314 306 308 351
142 133 114 107 94 60 28 38 32 26 24 14 16 14 13 11 9 3 2 359 354 351 348 344 343 339 326 331 331 341 179 336
143 124 103 88 81 78 109 102 42 31 22 16 12 12 15 15 12 5 3 355 356 356 356 348 341 346 333 319 343 350 340 342
154 150 133 97 81 87 117 113 86 28 21 13 12 15 13 14 17 9 4 2 358 356 357 356 341 342 347 20 336 336 330 296
162 153 129 96 99 105 99 91 91 42 26 14 16 19 15 12 13 13 8 5 3 1 356 354 353 348 350 357 342 314 328 316
160 158 140 114 100 85 84 84 72 55 24 25 23 24 22 24 11 9 11 16 11 8 4 2 358 356 4 352 344 338 38 315
169 165 146 136 101 91 85 83 66 54 34 27 23 24 21 20 14 13 13 13 16 19 13 8 4 4 10 6 357 351 333 324
163 169 143 134 117 99 91 76 72 57 43 34 31 28 19 14 16 19 17 12 15 22 21 13 10 14 17 9 2 353 335 325
177 160 148 148 129 113 94 78 63 61 50 53 45 40 27 25 23 24 24 23 19 20 24 17 9 11 15 13 6 358 349 337